Location: Oracle State Park
(32.6095°N, 110.7330°W)
Time: 07:59:15
(UTC-07:00)

POLYITAN 1 - Visible Passes

Search period start: 26 May 2019 00:00
Search period end: 05 June 2019 00:00
Orbit: 591 x 613 km, 97.9° (Epoch: 25 May)

Date Brightness Start Highest point End Pass type
(mag) Time Alt. Az. Time Alt. Az. Time Alt. Az.
26 May ? 00:55:18 10° N 00:56:18 17° N 00:56:18 17° N visible
27 May ? 01:07:07 10° N 01:08:13 18° N 01:08:13 18° N visible
28 May ? 01:19:01 10° N 01:20:08 17° NNW 01:20:08 17° NNW visible
29 May ? 01:31:01 10° NNW 01:32:03 16° NNW 01:32:03 16° NNW visible
30 May ? 01:43:09 10° NNW 01:43:58 14° NNW 01:43:58 14° NNW visible
31 May ? 00:18:38 10° NNE 00:19:05 13° NE 00:19:05 13° NE visible
31 May ? 01:55:30 10° NNW 01:55:53 11° NW 01:55:53 11° NW visible
01 Jun ? 00:30:10 10° NNE 00:31:00 15° NNE 00:31:00 15° NNE visible
02 Jun ? 00:41:48 10° NNE 00:42:55 18° NNE 00:42:55 18° NNE visible
03 Jun ? 00:53:31 10° N 00:54:49 20° N 00:54:49 20° N visible
04 Jun ? 01:05:19 10° N 01:06:43 20° N 01:06:43 20° N visible
